Tracking 23885 objects as of 28-Nov-2021
HD Live streaming from Space Station
objects crossing your sky now

SPACEBEE-108

Track SPACEBEE-108 now!
10-day predictions


NORAD ID: 48895
Int'l Code: 2021-059S
Perigee: 527.3 km
Apogee: 542.6 km
Inclination: 97.5 °
Period: 95.2 minutes
Semi major axis: 6905 km
RCS: Unknown
Launch date: June 30, 2021
Source: United States (US)
Launch site: AIR FORCE EASTERN TEST RANGE (AFETR)
aabbcc
Your satellite tracking list
Your tracking list is empty




NASA's NSSDC Master Catalog

Two Line Element Set (TLE):
1 48895U 21059S   21331.78490194  .00003027  00000-0  17617-3 0  9990
2 48895  97.5338  98.4117 0011048  83.3237 276.9250 15.12751856 23424
Source of the keplerian elements: AFSPC